Location: Berlise
(49.6641°N, 4.1077°E)
Time: 18:21:22
(UTC+00:00)

NOSS 0 Rocket - Pass Details

Date: 27 January 2021
Orbit: 938 x 952 km, 70.0° (Epoch: 26 February)

Event Time Altitude Azimuth Distance (km) Brightness Sun altitude
Exits shadow 04:45:40 61° 263° (W) 1,064 3.8 -25.3°
Maximum altitude 04:46:26 67° 304° (NW) 1,016 3.8 -25.2°
Drops below altitude 10° 04:52:36 10° 27° (NNE) 2,663 6.6 -24.2°
Sets 04:55:10 0° 30° (NNE) 3,610 7.4 -23.7°
